Regional Weather Roundup
Issued by NWS

Home | Current Version | Previous Version | Text Only | Print | Product List | Glossary Off
Versions: 1 2 3 4 5 6 7 8 9 10 11 12 13 14 15 16 17 18 19 20 21 22 23 24 25 26 27 28 29 30 31 32 33 34 35 36 37 38 39 40 41 42 43 44 45 46 47 48 49 50

000
ASUS43 KLOT 221109
RWRIL

ILLINOIS REGIONAL WEATHER ROUNDUP
NATIONAL WEATHER SERVICE CHICAGO/ROMEOVILLE IL
600 AM CDT SAT JUL 22 2017

NOTE: "FAIR" INDICATES FEW OR NO CLOUDS BELOW 12,000 FEET WITH NO
SIGNIFICANT WEATHER AND/OR OBSTRUCTIONS TO VISIBILITY.

* THESE STATIONS ARE NOT UNDER NWS QUALITY CONTROL. THEY ALSO MAY NOT
  REPORT WEATHER SUCH AS PRECIPITATION OR FOG.

ILZ001-002-007-009-015-016-024-221200-
NORTHWEST ILLINOIS

CITY           SKY/WX    TMP DP  RH WIND       PRES   REMARKS
MOLINE         TSTM      69  67  93 SW9       29.90R
STERLING*      TSTM      68  68 100 SW5       29.87R
SAVANNA*       CLOUDY    69  68  96 S12       29.86S
$$

ILZ003-004-008-010-011-017-018-221200-
NORTH CENTRAL ILLINOIS

CITY           SKY/WX    TMP DP  RH WIND       PRES   REMARKS
ROCKFORD       TSTM      72  67  84 SW16      29.80R
FREEPORT*      CLOUDY    67  67 100 SW24G32   29.82F
ROCHELLE*      TSTM      69  68  97 SW12G17   29.85R
DE KALB*       TSTM      69  69  97 S22       29.83R
PERU*          CLOUDY   N/A N/A N/A S10       29.88F
$$

ILZ005-006-012>014-019>023-221200-
NORTHEAST ILLINOIS

CITY           SKY/WX    TMP DP  RH WIND       PRES   REMARKS
CHICAGO-OHARE  LGT RAIN  74  69  85 SW20G30   29.74F
CHICAGO-MIDWAY LGT RAIN  73  71  93 S15G23    29.77F
AURORA         TSTM      70  69  97 SW17      29.83F
LANSING*       RAIN      72  69  91 SW8       29.83F
JOLIET*        RAIN      71  71  99 SW8       29.85F
WAUKEGAN       CLOUDY    71  70  96 VRB5      29.77F
DUPAGE AIRPORT RAIN      70  70 100 SW18G29   29.78F
WHEELING       LGT RAIN  73  72  96 N10G18    29.78R
MORRIS*        RAIN      70  69  96 SW9       29.85F
ROMEOVILLE*    RAIN      69  67  92 SW15      29.82F
NORTHERLY ISL    N/A     73  67  81 S13         N/A
$$

LMZ740>746-221200-
SOUTHERN LAKE MICHIGAN

STATION/POSITION SKY/WX   TEMP    WIND        PRES    VSBY  WAVE
                          AIR SEA DIR/SP/G                  HT/PER
                          (F)     (DEG/KT/KT) (MB)    (MI)  (FT/S)
SOUTHERN BUOY              71 70  210/  8/ 10 1008.0          2/ 4
WILMETTE HARBOR            74 72  340/ 17/ 23   N/A           3/ 3
HARRISON CRIB              77     210/ 25/ 27   N/A
BURNHAM HARBOR             72                   N/A
CALUMET HARBOR             72     210/  8/ 13 1009.0F
BURNS HARBOR               72     200/ 20/ 23 1009.1F
MICHIGAN CITY              71     190/ 22/ 25   N/A
MICHIGAN CITY 6N           73 74  210/ 21/ 27   N/A           4
ST. JOSEPH                 74 74  110/  2/  4 1008.5          3/ 2
$$

ILZ025>027-034>036-040-047-049-050-058-095>099-221200-
WEST-CENTRAL ILLINOIS

CITY           SKY/WX    TMP DP  RH WIND       PRES   REMARKS
QUINCY         CLOUDY    82  70  66 SW10      29.81R HX  86
GALESBURG*     TSTM      68  68  98 NE17G24   29.93F
MACOMB*        TSTM      70  67  92 NE18G26   29.93R
JACKSONVILLE*  CLOUDY    80  71  74 CALM      29.86R HX  83
PITTSFIELD*    CLEAR     82  71  68 SW10      29.83F HX  87
$$

ILZ028>032-037-038-041>044-048-051>054-059>061-221200-
CENTRAL ILLINOIS

CITY           SKY/WX    TMP DP  RH WIND       PRES   REMARKS
PONTIAC        RAIN      72  71  97 N14G21    29.88F
BLOOMINGTON    MOCLDY    72  68  87 N7        29.89S
DECATUR        LGT RAIN  80  74  81 W10       29.87S HX  85
PEORIA         LGT RAIN  72  70  93 N7        29.91R
LACON*         TSTM      70  70 100 NW16G23   29.93R
LINCOLN*       PTCLDY    75  71  87 CALM      29.87F
SPRINGFIELD    CLOUDY    78  77  96 CALM      29.87R HX  81
TAYLORVILLE    CLOUDY    77  75  95 CALM      29.88R
$$

ILZ033-039-045-046-055>057-062-063-221200-
EAST-CENTRAL ILLINOIS

CITY           SKY/WX    TMP DP  RH WIND       PRES   REMARKS
CHAMPAIGN      CLOUDY    78  74  87 W7        29.87R HX  81
RANTOUL*       CLOUDY    75  72  92 N9        29.88R
MATTOON        CLOUDY    80  77  90 SW8       29.86R HX  87
PARIS*         CLOUDY    77  76  96 S5        29.87F
$$

ILZ079-100>102-221200-
SOUTHWEST ILLINOIS

CITY           SKY/WX    TMP DP  RH WIND       PRES   REMARKS
ALTON          CLEAR     78  73  85 SW6       29.87S HX  81
BELLEVILLE     CLEAR     78  73  86 SW3       29.88S HX  80
CAHOKIA*       CLEAR     81  72  74 CALM      29.87R HX  85
SPARTA*        CLEAR     79  74  85 SW7       29.90S HX  82
$$

ILZ064>066-069>071-074>076-080>082-084>086-088>090-092>094-221200-
SOUTH-CENTRAL ILLINOIS

CITY           SKY/WX    TMP DP  RH WIND       PRES   REMARKS
CARBONDALE     CLEAR     78  76  93 SW6       29.90S HX  81
CAIRO*         CLEAR     79  75  88 CALM      29.92S HX  83
EFFINGHAM*     CLEAR     79  76  90 SW5       29.90R HX  83
MARION         CLEAR     79  77  94 S6        29.91F HX  83
MT. VERNON     CLEAR     76  74  93 SW6       29.89R
CENTRALIA*     CLEAR     79  76  90 SW7       29.87F HX  83
SALEM*         CLEAR     81  74  80 SW6       29.88S HX  87
METROPOLIS*    CLEAR     78  75  92 CALM      29.94R HX  80
$$

ILZ067-068-072-073-078-083-087-091-221200-
SOUTHEAST ILLINOIS

CITY           SKY/WX    TMP DP  RH WIND       PRES   REMARKS
LAWRENCEVILLE  CLEAR     77  75  93 S6        29.88R FOG
FLORA*         CLEAR     78  76  93 S3        29.89R FOG     HX  80
FAIRFIELD*     CLEAR     76  75  97 S3        29.88S FOG
HARRISBURG*    CLEAR     76  74  96 CALM      29.90F FOG
ROBINSON*      CLEAR     76  75  95 SW5       29.89R
CARMI*         CLEAR     75  74  98 S6        29.89S FOG
$$

ABBREVIATIONS USED IN REMARKS
   TC - TEMPERATURE IN CELSIUS
  WCI - WIND CHILL INDEX
   HX - HEAT INDEX
  VSB - VISIBILITY
$$





USA.gov is the U.S. government's official web portal to all federal, state and local government web resources and services.